Notices

What's New in latest Release from April 7th, 2021:

- Updated Glossary, including Speed of Maximum Gust, and Total Hourly Precipitation

- Updated national and regional climate services offices contacts and prices information

- Addition of station inventory lists for 1981-2010, 1971-2000, and 1961-1990 Normals.

If you haven't already, please take our survey and provide feedback about our website: https://eccc.sondage-survey.ca/f/LanguageSelection.aspx?s=442ca660-fcf1-47c0-95a9-59707d6fd709

Hourly Data Report for November 30, 2017

CARBERRY CS
MANITOBA

49°54'20.900" N
99°21'26.800" W
383.50 m
5010547
71170
WZE

Download Data

Hourly Data (November 2017)
Hourly Data Report for November 30, 2017
TIME
LST
Temp Definition
°C
Dew Point Definition
°C
Rel Hum Definition
%
Precip. Amount Definition
mm

Wind Dir Definition
10's deg

Wind Spd Definition
km/h
Visibility Definition
km
Stn Press Definition
kPa
Hmdx Definition


Wind Chill Definition


Weather Definition


00:00 -0.6 -3.6 80 0.0 28 29   96.40   -7 LegendNANA
01:00 -0.4 -3.3 81 0.0 28 25   96.52   -6 LegendNANA
02:00 -1.3 -3.8 83 0.0 26 29   96.58   -8 LegendNANA
03:00 -2.1 -4.4 84 0.0 26 27   96.66   -9 LegendNANA
04:00 -1.8 -4.5 82 0.0 28 27   96.76   -8 LegendNANA
05:00 -3.0 -5.2 85 0.0 27 16   96.83   -8 LegendNANA
06:00 -2.3 -4.6 85 0.0 27 23   96.84   -9 LegendNANA
07:00 -2.5 -4.7 85 0.0 26 19   96.85   -8 LegendNANA
08:00 -2.9 -5.2 84 0.0 25 13   96.91   -8 LegendNANA
09:00 -4.0 -6.3 84 0.0 24 13   96.96   -9 LegendNANA
10:00 -3.0 -5.7 81 0.2 24 8   96.98   -6 LegendNANA
11:00 -1.1 -4.7 77 0.0 23 11   96.98   -5 LegendNANA
12:00 0.8 -3.6 72 0.0 22 11   96.92     LegendNANA
13:00 1.8 -3.1 70 0.0 21 15   96.85     LegendNANA
14:00 3.0 -2.8 66 0.0 22 15   96.78     LegendNANA
15:00 3.6 -3.4 60 0.0 23 15   96.68     LegendNANA
16:00 2.0 -2.7 71 0.0 22 11   96.65     LegendNANA
17:00 1.5 -2.4 75 0.0 22 10   96.63     LegendNANA
18:00 1.0 -2.6 77 0.0 22 11   96.58     LegendNANA
19:00 0.5 -2.9 78 0.0 22 14   96.56     LegendNANA
20:00 -1.0 -3.7 82 0.0 21 10   96.54   -5 LegendNANA
21:00 -0.5 -3.7 79 0.0 22 12   96.52   -4 LegendNANA
22:00 -1.1 -4.0 80 0.0 22 13   96.46   -5 LegendNANA
23:00 -0.8 -4.3 77 0.0 25 17   96.48   -6 LegendNANA

Notes on Data Quality.

Legend

  • E = Estimated
  • M = Missing
  • NA = Not Available*
  • [empty] = Indicates an unobserved value
Date modified: